User: anonymous   Login
Location: Iola
(37.9240°N, 95.4000°W)
Time: 03:29:15
(UTC-05:00)
Language:

Meteor 2-10 Rocket - Orbit

View from above orbital plane
View from above orbital plane
View from above satellite
View from above satellite

Ground track
Ground track

The orbit data is extracted from the following two-line orbital elements,

1 14453U 83109B   16237.86991478  .00000041  00000-0  11646-4 0  9996
2 14453  81.1655  44.3876 0104674 200.3980 159.3006 14.24653448705334
Epoch (UTC): 24 August 2016 20:52:40
Eccentricity: 0.0104674
inclination: 81.1655°
perigee height: 734 km
apogee height: 885 km
right ascension of ascending node: 44.3876°
argument of perigee: 200.3980°
revolutions per day: 14.24653448
mean anomaly at epoch: 159.3006°
orbit number at epoch: 70533

The dashed part of the orbit path shows where the satellite is in the earth's shadow,  

DLR